sat.trackr.live / text

‹ back to catalog

COSMOS 2571

NORAD 58172 · 2023-165C

PAYLOAD ACTIVE UNKNOWN

§ Identity

Operator
Country
CIS
Launch date
2023-10-27
Launch site
PLMSC
Launch vehicle
Mass (kg)
RCS (m²)

External: N2YO · Heavens-Above · Gunter

§ Orbital elements

Epoch: 2026-09-20T20:29:37.017888Z

Period
103.05 min
Inclination
67.1492°
Eccentricity
0.0019654
Mean motion
13.97340521 rev/d
Perigee alt
888.7 km
Apogee alt
917.3 km
Semi-major
7,281.2 km
B*
5.0499e-5
RAAN
54.6128°
Arg perigee
260.9516°
Mean anomaly
98.9345°
Rev number
14,772

§ Raw data

COSMOS 25711 58172U 23165C   26263.85390067 -.00000004  00000+0  50499-4 0  99922 58172  67.1492  54.6128 0019654 260.9516  98.9345 13.97340521147728

JSON: /api/v1/satellites/58172 · /tle

For live sub-satellite position, see the globe view (requires WebGL).

§ Visibility from observer

Set your observer location to see the next 7 days of passes ≥ 10°. The values pass through the URL so the page stays shareable.

No JS? Fill the form by hand. The geolocation button needs JavaScript.